Time,TemperatureF,DewpointF,PressureIn,WindDirection,WindDirectionDegrees,WindSpeedMPH,WindSpeedGustMPH,Humidity,HourlyPrecipIn,Conditions,Clouds,dailyrainin,SoftwareType,DateUTC
2013-07-21 00:22:00,73.0,-99.9,-100.00,North,-999,-999.0,-999.0,-999,0.00,,,0.00,,2013-07-21 05:22:00,
2013-07-21 00:32:00,73.0,-99.9,-100.00,North,-999,-999.0,-999.0,-999,0.00,,,0.00,,2013-07-21 05:32:00,
2013-07-21 00:43:00,73.0,-99.9,-100.00,North,-999,-999.0,-999.0,-999,0.00,,,0.00,,2013-07-21 05:43:00,
2013-07-21 01:22:00,73.0,-99.9,-100.00,North,-999,-999.0,-999.0,-999,0.00,,,0.00,,2013-07-21 06:22:00,
2013-07-21 01:32:00,73.0,-99.9,-100.00,North,-999,-999.0,-999.0,-999,0.00,,,0.00,,2013-07-21 06:32:00,
2013-07-21 01:43:00,73.0,-99.9,-100.00,North,-999,-999.0,-999.0,-999,0.00,,,0.00,,2013-07-21 06:43:00,
2013-07-21 02:22:00,72.0,-99.9,-100.00,North,-999,-999.0,-999.0,-999,0.00,,,0.00,,2013-07-21 07:22:00,
2013-07-21 02:32:00,72.0,-99.9,-100.00,North,-999,-999.0,-999.0,-999,0.00,,,0.00,,2013-07-21 07:32:00,
2013-07-21 02:43:00,72.0,-99.9,-100.00,North,-999,-999.0,-999.0,-999,0.00,,,0.00,,2013-07-21 07:43:00,
2013-07-21 03:22:00,72.0,-99.9,-100.00,North,-999,-999.0,-999.0,-999,0.00,,,0.00,,2013-07-21 08:22:00,
2013-07-21 03:33:00,72.0,-99.9,-100.00,North,-999,-999.0,-999.0,-999,0.00,,,0.00,,2013-07-21 08:33:00,
2013-07-21 03:43:00,72.0,-99.9,-100.00,North,-999,-999.0,-999.0,-999,0.00,,,0.00,,2013-07-21 08:43:00,
2013-07-21 04:22:00,72.0,-99.9,-100.00,North,-999,-999.0,-999.0,-999,0.00,,,0.00,,2013-07-21 09:22:00,
2013-07-21 04:33:00,72.0,-99.9,-100.00,North,-999,-999.0,-999.0,-999,0.00,,,0.00,,2013-07-21 09:33:00,
2013-07-21 04:42:00,72.0,-99.9,-100.00,North,-999,-999.0,-999.0,-999,0.00,,,0.00,,2013-07-21 09:42:00,
2013-07-21 05:22:00,72.0,-99.9,-100.00,North,-999,-999.0,-999.0,-999,0.00,,,0.00,,2013-07-21 10:22:00,
2013-07-21 05:32:00,72.0,-99.9,-100.00,North,-999,-999.0,-999.0,-999,0.00,,,0.00,,2013-07-21 10:32:00,
2013-07-21 05:43:00,72.0,-99.9,-100.00,North,-999,-999.0,-999.0,-999,0.00,,,0.00,,2013-07-21 10:43:00,
2013-07-21 06:22:00,71.0,-99.9,-100.00,North,-999,-999.0,-999.0,-999,0.00,,,0.00,,2013-07-21 11:22:00,
2013-07-21 06:33:00,71.0,-99.9,-100.00,North,-999,-999.0,-999.0,-999,0.00,,,0.00,,2013-07-21 11:33:00,
2013-07-21 06:43:00,71.0,-99.9,-100.00,North,-999,-999.0,-999.0,-999,0.00,,,0.00,,2013-07-21 11:43:00,
2013-07-21 07:32:00,72.0,-99.9,-100.00,North,-999,-999.0,-999.0,-999,0.00,,,0.00,,2013-07-21 12:32:00,
2013-07-21 07:43:00,72.0,-99.9,-100.00,North,-999,-999.0,-999.0,-999,0.00,,,0.00,,2013-07-21 12:43:00,
2013-07-21 08:22:00,73.0,-99.9,-100.00,North,-999,-999.0,-999.0,-999,0.00,,,0.00,,2013-07-21 13:22:00,
2013-07-21 08:33:00,73.0,-99.9,-100.00,North,-999,-999.0,-999.0,-999,0.00,,,0.00,,2013-07-21 13:33:00,
2013-07-21 08:43:00,73.0,-99.9,-100.00,North,-999,-999.0,-999.0,-999,0.00,,,0.00,,2013-07-21 13:43:00,
2013-07-21 09:23:00,75.0,-99.9,-100.00,North,-999,-999.0,-999.0,-999,0.00,,,0.00,,2013-07-21 14:23:00,
2013-07-21 09:32:00,75.0,-99.9,-100.00,North,-999,-999.0,-999.0,-999,0.00,,,0.00,,2013-07-21 14:32:00,
2013-07-21 09:43:00,75.0,-99.9,-100.00,North,-999,-999.0,-999.0,-999,0.00,,,0.00,,2013-07-21 14:43:00,
2013-07-21 10:23:00,79.0,-99.9,-100.00,North,-999,-999.0,-999.0,-999,0.00,,,0.00,,2013-07-21 15:23:00,
2013-07-21 10:32:00,79.0,-99.9,-100.00,North,-999,-999.0,-999.0,-999,0.00,,,0.00,,2013-07-21 15:32:00,
2013-07-21 10:43:00,79.0,-99.9,-100.00,North,-999,-999.0,-999.0,-999,0.00,,,0.00,,2013-07-21 15:43:00,
2013-07-21 11:22:00,84.0,-99.9,-100.00,North,-999,-999.0,-999.0,-999,0.00,,,0.00,,2013-07-21 16:22:00,
2013-07-21 11:32:00,84.0,-99.9,-100.00,North,-999,-999.0,-999.0,-999,0.00,,,0.00,,2013-07-21 16:32:00,
2013-07-21 11:43:00,84.0,-99.9,-100.00,North,-999,-999.0,-999.0,-999,0.00,,,0.00,,2013-07-21 16:43:00,
2013-07-21 12:33:00,88.0,-99.9,-100.00,North,-999,-999.0,-999.0,-999,0.00,,,0.00,,2013-07-21 17:33:00,
2013-07-21 12:43:00,88.0,-99.9,-100.00,North,-999,-999.0,-999.0,-999,0.00,,,0.00,,2013-07-21 17:43:00,
2013-07-21 13:22:00,87.0,-99.9,-100.00,North,-999,-999.0,-999.0,-999,0.00,,,0.00,,2013-07-21 18:22:00,
2013-07-21 13:32:00,87.0,-99.9,-100.00,North,-999,-999.0,-999.0,-999,0.00,,,0.00,,2013-07-21 18:32:00,
2013-07-21 13:43:00,87.0,-99.9,-100.00,North,-999,-999.0,-999.0,-999,0.00,,,0.00,,2013-07-21 18:43:00,
2013-07-21 14:22:00,73.0,-99.9,-100.00,North,-999,-999.0,-999.0,-999,0.12,,,0.12,,2013-07-21 19:22:00,
2013-07-21 14:32:00,73.0,-99.9,-100.00,North,-999,-999.0,-999.0,-999,0.12,,,0.12,,2013-07-21 19:32:00,
2013-07-21 14:42:00,73.0,-99.9,-100.00,North,-999,-999.0,-999.0,-999,0.12,,,0.12,,2013-07-21 19:42:00,
2013-07-21 15:22:00,78.0,-99.9,-100.00,North,-999,-999.0,-999.0,-999,0.01,,,0.13,,2013-07-21 20:22:00,
2013-07-21 15:32:00,78.0,-99.9,-100.00,North,-999,-999.0,-999.0,-999,0.01,,,0.13,,2013-07-21 20:32:00,
2013-07-21 15:43:00,78.0,-99.9,-100.00,North,-999,-999.0,-999.0,-999,0.01,,,0.13,,2013-07-21 20:43:00,
2013-07-21 16:22:00,79.0,-99.9,-100.00,North,-999,-999.0,-999.0,-999,0.00,,,0.13,,2013-07-21 21:22:00,
2013-07-21 16:32:00,79.0,-99.9,-100.00,North,-999,-999.0,-999.0,-999,0.00,,,0.13,,2013-07-21 21:32:00,
2013-07-21 16:43:00,79.0,-99.9,-100.00,North,-999,-999.0,-999.0,-999,0.00,,,0.13,,2013-07-21 21:43:00,
2013-07-21 17:22:00,81.0,-99.9,-100.00,North,-999,-999.0,-999.0,-999,0.00,,,-99.99,,2013-07-21 22:22:00,
2013-07-21 17:32:00,81.0,-99.9,-100.00,North,-999,-999.0,-999.0,-999,0.00,,,-99.99,,2013-07-21 22:32:00,
2013-07-21 17:43:00,81.0,-99.9,-100.00,North,-999,-999.0,-999.0,-999,0.00,,,-99.99,,2013-07-21 22:43:00,
2013-07-21 20:22:00,79.0,-99.9,-100.00,North,-999,-999.0,-999.0,-999,-99.99,,,-99.99,,2013-07-22 01:22:00,
2013-07-21 20:32:00,79.0,-99.9,-100.00,North,-999,-999.0,-999.0,-999,-99.99,,,-99.99,,2013-07-22 01:32:00,
2013-07-21 20:42:00,79.0,-99.9,-100.00,North,-999,-999.0,-999.0,-999,-99.99,,,-99.99,,2013-07-22 01:42:00,
2013-07-21 21:23:00,78.0,-99.9,-100.00,North,-999,-999.0,-999.0,-999,0.00,,,0.14,,2013-07-22 02:23:00,
2013-07-21 21:32:00,78.0,-99.9,-100.00,North,-999,-999.0,-999.0,-999,0.00,,,0.14,,2013-07-22 02:32:00,
2013-07-21 21:43:00,78.0,-99.9,-100.00,North,-999,-999.0,-999.0,-999,0.00,,,0.14,,2013-07-22 02:43:00,
2013-07-21 22:22:00,77.0,-99.9,-100.00,North,-999,-999.0,-999.0,-999,0.00,,,0.14,,2013-07-22 03:22:00,
2013-07-21 22:33:00,77.0,-99.9,-100.00,North,-999,-999.0,-999.0,-999,0.00,,,0.14,,2013-07-22 03:33:00,
2013-07-21 22:43:00,77.0,-99.9,-100.00,North,-999,-999.0,-999.0,-999,0.00,,,0.14,,2013-07-22 03:43:00,
2013-07-21 23:22:00,76.0,-99.9,-100.00,North,-999,-999.0,-999.0,-999,0.00,,,0.14,,2013-07-22 04:22:00,
2013-07-21 23:33:00,76.0,-99.9,-100.00,North,-999,-999.0,-999.0,-999,0.00,,,0.14,,2013-07-22 04:33:00,
2013-07-21 23:43:00,76.0,-99.9,-100.00,North,-999,-999.0,-999.0,-999,0.00,,,0.14,,2013-07-22 04:43:00,